Weather in Genichesk

Ukraine / Kherson District     46˚10′35″N   34˚47′56″E
temp.,
°C
wind,
m/s
gust,
m/s
humid.,
%
clouds,
%
prec.,
mm/h
press.,
hPa
HPBL,
m
28 november, sat
sat2823:00+8˚ssw478710 0.0 1022140
02:00+8˚ssw448615 0.0 102167
05:00+7˚sse34870 0.0 102134
08:00+7˚se22896 0.0 102124
11:00+10˚ese22768 0.0 1020282
14:00+10˚se227120 0.0 1019297
17:00+8˚ese2282100 0.0 101922
20:00+8˚se228795 0.0 101923
29 november, sun
sun2923:00+8˚sse228881 0.0 101924
02:00+8˚ssw238656 0.0 101923
05:00+8˚ssw238493 0.0 101925
08:00+8˚s338896 0.0 102035
11:00+11˚se337199 0.0 1020218
14:00+11˚ese337699 0.0 1020192
17:00+9˚ese3488100 0.0 102047
20:00+9˚se4574100 0.0 102165
30 november, mon
mon3023:00+9˚se5990100 0.0 1021173
02:00+8˚se4690100 0.0 1021111
05:00+8˚ese6983100 0.0 1020206
08:00+7˚e71081100 0.0 1021330
11:00+8˚e71079100 0.0 1021440
14:00+8˚e81181100 0.0 1020445
17:00+7˚e71285100 0.0 1020529
20:00+7˚e71284100 0.0 1020463
1 december, tue
tue123:00+6˚ene51089100 0.0 1020329
02:00+6˚ene61088100 0.0 1020413
05:00+7˚ene71078100 0.0 1020762
08:00+6˚ene7978100 0.1 1021815
11:00+7˚ene7972100 0.1 1021953
14:00+6˚ene7974100 0.1 1021879
17:00+6˚ne5774100 0.0 1021834
20:00+5˚nne587799 0.1 1022455
2 december, wed
wed223:00+4˚n588278 0.0 1022294
02:00+5˚nne588775 0.0 1022333
05:00+7˚ene698598 0.0 1022501
08:00+6˚e7108599 0.1 1023532
11:00+7˚e81082100 0.0 1023560
14:00+6˚e81083100 0.0 1023574
17:00+6˚ene71081100 0.0 1023633
20:00+7˚ene71080100 0.0 1024644